TimeEDT,TemperatureF,Dew PointF,Humidity,Sea Level PressureIn,VisibilityMPH,Wind Direction,Wind SpeedMPH,Gust SpeedMPH,PrecipitationIn,Events,Conditions,WindDirDegrees,DateUTC
12:54 AM,66.0,64.0,93,29.96,10.0,SSW,5.8,-,0.00,,Clear,200,2013-06-01 04:54:00
1:54 AM,66.0,64.0,93,29.96,10.0,South,5.8,-,N/A,,Clear,190,2013-06-01 05:54:00
2:54 AM,66.9,63.0,87,29.92,10.0,South,9.2,-,N/A,,Clear,180,2013-06-01 06:54:00
3:54 AM,66.0,63.0,90,29.91,10.0,South,6.9,-,N/A,,Scattered Clouds,190,2013-06-01 07:54:00
4:54 AM,64.9,63.0,93,29.93,10.0,SSW,5.8,-,N/A,,Clear,200,2013-06-01 08:54:00
5:54 AM,66.0,63.0,90,29.92,10.0,SSE,5.8,-,N/A,,Clear,150,2013-06-01 09:54:00
6:54 AM,66.9,63.0,87,29.92,10.0,South,9.2,-,N/A,,Clear,190,2013-06-01 10:54:00
7:54 AM,71.1,64.9,81,29.91,10.0,South,11.5,-,N/A,,Partly Cloudy,190,2013-06-01 11:54:00
8:54 AM,73.0,64.9,76,29.91,10.0,SSW,17.3,21.9,N/A,,Scattered Clouds,200,2013-06-01 12:54:00
9:54 AM,75.9,66.0,71,29.89,10.0,SSW,13.8,20.7,N/A,,Partly Cloudy,210,2013-06-01 13:54:00
10:51 AM,77.0,64.4,65,29.91,10.0,SSW,19.6,31.1,N/A,,Mostly Cloudy,210,2013-06-01 14:51:00
10:54 AM,77.0,64.9,66,29.89,10.0,SSW,21.9,31.1,N/A,,Mostly Cloudy,210,2013-06-01 14:54:00
11:35 AM,77.0,64.4,65,29.90,10.0,SW,12.7,25.3,N/A,,Scattered Clouds,220,2013-06-01 15:35:00
11:54 AM,77.0,66.0,69,29.88,10.0,SSW,15.0,26.5,N/A,,Clear,210,2013-06-01 15:54:00
12:54 PM,80.1,66.9,64,29.87,10.0,SSW,19.6,27.6,N/A,,Clear,200,2013-06-01 16:54:00
1:54 PM,81.0,66.0,60,29.87,10.0,SSW,18.4,32.2,N/A,,Partly Cloudy,210,2013-06-01 17:54:00
2:54 PM,82.0,66.9,60,29.85,10.0,SSW,20.7,25.3,N/A,,Scattered Clouds,210,2013-06-01 18:54:00
3:54 PM,81.0,66.0,60,29.84,10.0,SSW,20.7,29.9,N/A,,Mostly Cloudy,210,2013-06-01 19:54:00
4:54 PM,82.0,66.9,60,29.84,10.0,SSW,17.3,23.0,N/A,,Mostly Cloudy,200,2013-06-01 20:54:00
5:54 PM,82.0,66.0,58,29.82,10.0,SSW,16.1,23.0,N/A,,Scattered Clouds,210,2013-06-01 21:54:00
6:54 PM,82.0,66.0,58,29.80,10.0,SW,17.3,25.3,N/A,,Partly Cloudy,220,2013-06-01 22:54:00
7:54 PM,80.1,64.0,58,29.80,10.0,SSW,18.4,26.5,N/A,,Scattered Clouds,210,2013-06-01 23:54:00
8:54 PM,78.1,64.0,62,29.79,10.0,SSW,13.8,-,N/A,,Partly Cloudy,200,2013-06-02 00:54:00
9:54 PM,77.0,64.9,66,29.78,10.0,South,12.7,-,N/A,,Clear,190,2013-06-02 01:54:00
10:54 PM,75.9,64.9,69,29.76,10.0,SSW,17.3,32.2,N/A,,Mostly Cloudy,200,2013-06-02 02:54:00
11:54 PM,73.9,66.0,76,29.75,10.0,South,11.5,-,N/A,,Mostly Cloudy,190,2013-06-02 03:54:00